TimeEDT,TemperatureF,Dew PointF,Humidity,Sea Level PressureIn,VisibilityMPH,Wind Direction,Wind SpeedMPH,Gust SpeedMPH,PrecipitationIn,Events,Conditions,WindDirDegrees,DateUTC
12:51 AM,48.0,35.1,61,29.94,10.0,Variable,4.6,-,N/A,,Clear,0,2012-10-17 04:51:00
1:51 AM,46.9,36.0,66,29.93,10.0,Calm,Calm,-,N/A,,Clear,0,2012-10-17 05:51:00
2:51 AM,46.9,36.0,66,29.94,10.0,NNE,5.8,-,N/A,,Clear,20,2012-10-17 06:51:00
3:51 AM,45.0,37.0,74,29.94,10.0,Calm,Calm,-,N/A,,Clear,0,2012-10-17 07:51:00
4:51 AM,46.0,37.0,71,29.94,10.0,Calm,Calm,-,N/A,,Clear,0,2012-10-17 08:51:00
5:51 AM,46.0,37.9,73,29.96,10.0,WNW,3.5,-,N/A,,Clear,290,2012-10-17 09:51:00
6:51 AM,45.0,37.9,76,29.98,10.0,Calm,Calm,-,N/A,,Clear,0,2012-10-17 10:51:00
7:51 AM,46.0,39.0,76,29.99,10.0,Calm,Calm,-,N/A,,Clear,0,2012-10-17 11:51:00
8:51 AM,48.0,37.0,66,30.00,10.0,Calm,Calm,-,N/A,,Clear,0,2012-10-17 12:51:00
9:51 AM,50.0,37.0,61,30.02,10.0,Calm,Calm,-,N/A,,Clear,0,2012-10-17 13:51:00
10:51 AM,53.1,39.0,59,30.01,10.0,Calm,Calm,-,N/A,,Clear,0,2012-10-17 14:51:00
11:51 AM,55.9,37.9,51,30.00,10.0,WNW,4.6,-,N/A,,Clear,290,2012-10-17 15:51:00
12:51 PM,57.0,37.0,47,29.98,10.0,Calm,Calm,-,N/A,,Clear,0,2012-10-17 16:51:00
1:51 PM,59.0,37.9,46,29.96,10.0,Variable,3.5,-,N/A,,Clear,0,2012-10-17 17:51:00
2:51 PM,60.1,39.0,46,29.94,10.0,West,4.6,-,N/A,,Clear,270,2012-10-17 18:51:00
3:51 PM,60.1,41.0,49,29.94,10.0,Calm,Calm,-,N/A,,Clear,0,2012-10-17 19:51:00
4:51 PM,59.0,39.9,49,29.94,10.0,Calm,Calm,-,N/A,,Clear,0,2012-10-17 20:51:00
5:51 PM,57.9,41.0,53,29.95,10.0,Calm,Calm,-,N/A,,Clear,0,2012-10-17 21:51:00
6:51 PM,55.9,44.1,64,29.96,10.0,SSE,3.5,-,N/A,,Clear,160,2012-10-17 22:51:00
7:51 PM,55.0,44.1,67,29.98,10.0,Variable,3.5,-,N/A,,Clear,0,2012-10-17 23:51:00
8:51 PM,55.0,41.0,59,29.99,10.0,Variable,5.8,-,N/A,,Clear,0,2012-10-18 00:51:00
9:51 PM,55.9,41.0,57,29.99,10.0,Variable,6.9,-,N/A,,Clear,0,2012-10-18 01:51:00
10:51 PM,55.0,42.1,62,30.00,10.0,Variable,3.5,-,N/A,,Clear,0,2012-10-18 02:51:00
11:51 PM,55.0,41.0,59,29.99,10.0,Calm,Calm,-,N/A,,Clear,0,2012-10-18 03:51:00